Tracking 29892 objects as of 21-Nov-2024
HD Live streaming from Space Station
objects crossing your sky now

STARLINK-2469

Track STARLINK-2469 now!
10-day predictions
STARLINK-2469 is classified as:


NORAD ID: 48128
Int'l Code: 2021-027AN
Perigee: 553.3 km
Apogee: 555.2 km
Inclination: 53.1 °
Period: 95.6 minutes
Semi major axis: 6925 km
RCS: Unknown
Launch date: April 7, 2021
Source: United States (US)
Launch site: AIR FORCE EASTERN TEST RANGE (AFETR)
Your satellite tracking list
Your tracking list is empty




NASA's NSSDC Master Catalog

Two Line Element Set (TLE):
1 48128U 21027AN  24325.73968585  .00014451  00000-0  98602-3 0  9995
2 48128  53.0530  69.3442 0001386 103.4722 256.6421 15.06438276201951
Source of the keplerian elements: AFSPC